User: anonymous   Login
Location: Bittkow
(50.3000°N, 19.0000°E)
Time: 05:51:00
(UTC+00:00)
Language:

Cosmos 1733 Rocket - Orbit

View from above orbital plane
View from above orbital plane
View from above satellite
View from above satellite

Ground track
Ground track

The orbit data is extracted from the following two-line orbital elements,

1 16612U 86018B   20339.34427049  .00000116  00000-0  10942-4 0  9997
2 16612  82.5168 188.4044 0016294 296.1329 236.7763 14.84279534779263
Epoch (UTC): 04 December 2020 08:15:44
Eccentricity: 0.0016294
inclination: 82.5168°
perigee height: 604 km
apogee height: 627 km
right ascension of ascending node: 188.4044°
argument of perigee: 296.1329°
revolutions per day: 14.84279534
mean anomaly at epoch: 236.7763°
orbit number at epoch: 77926

The dashed part of the orbit path shows where the satellite is in the earth's shadow,  

DLR